This is the latest recevied weather packets stored in our database for station/object KC3ROS. If no packets are shown the sender has not sent any weather packets the latest 10 day(s).
| Time | Temp. | Humidity | Pressure | Rain* | Wind** | Luminosity | Snow |
|---|---|---|---|---|---|---|---|
| 1777330662 | 20.56° C | 42% | 1016.2 hPa | 0 mm | - | 55 W/m² | - |
| 1777330359 | 20.56° C | 44% | 1016.2 hPa | 0 mm | - | 61 W/m² | - |
| 1777330057 | 20.56° C | 41% | 1016.5 hPa | 0 mm | - | 67 W/m² | - |
| 1777329751 | 20.56° C | 43% | 1016.5 hPa | 0 mm | - | 72 W/m² | - |
| 1777329449 | 20.56° C | 42% | 1016.7 hPa | 0 mm | - | 78 W/m² | - |
| 1777329146 | 20.56° C | 43% | 1016.7 hPa | 0 mm | - | 83 W/m² | - |
| 1777328843 | 21.11° C | 41% | 1016.6 hPa | 0 mm | - | 87 W/m² | - |
| 1777328541 | 21.11° C | 43% | 1016.8 hPa | 0 mm | - | 90 W/m² | - |
| 1777328239 | 21.11° C | 40% | 1017 hPa | 0 mm | - | 93 W/m² | - |
| 1777327937 | 21.11° C | 39% | 1016.8 hPa | 0 mm | - | 101 W/m² | - |
| 1777327635 | 21.67° C | 40% | 1017.2 hPa | 0 mm | - | 113 W/m² | - |
| 1777327332 | 21.67° C | 37% | 1017.1 hPa | 0 mm | - | 124 W/m² | - |
| 1777327029 | 21.67° C | 39% | 1017.2 hPa | 0 mm | - | 142 W/m² | - |
| 1777326726 | 21.67° C | 38% | 1017.2 hPa | 0 mm | - | 143 W/m² | - |
| 1777326423 | 22.22° C | 37% | 1017 hPa | 0 mm | - | 131 W/m² | - |
| 1777326121 | 22.22° C | 36% | 1017.2 hPa | 0 mm | - | 173 W/m² | - |
| 1777325818 | 22.22° C | 37% | 1016.7 hPa | 0 mm | - | 202 W/m² | - |
| 1777325517 | 22.22° C | 37% | 1016.5 hPa | 0 mm | - | 215 W/m² | - |
| 1777325214 | 22.22° C | 37% | 1016.4 hPa | 0 mm | - | 174 W/m² | - |
| 1777324910 | 22.22° C | 39% | 1016.4 hPa | 0 mm | - | 225 W/m² | - |
| 1777324608 | 22.22° C | 37% | 1016.2 hPa | 0 mm | - | 234 W/m² | - |
| 1777324305 | 22.22° C | 36% | 1016.4 hPa | 0 mm | - | 219 W/m² | - |
| 1777324003 | 22.22° C | 37% | 1016.3 hPa | 0 mm | - | 235 W/m² | - |
| 1777323700 | 22.22° C | 39% | 1016.4 hPa | 0 mm | - | 220 W/m² | - |
| 1777323397 | 22.78° C | 36% | 1016.4 hPa | 0 mm | - | 231 W/m² | - |
* Rain latest hour (hover to see other rain measurements)
** Current wind speed in m/s (hover to see current wind gust speed)